Weather in Zelene

Ukraine / Dnipropetrovsk Region     48°39′19″N   36°15′51″E
В апреле 2022 года жителям России запретили посещать сайт meteo.paraplan.net по решению Генеральной прокуратуры. Аудитория сайта уменьшилась в 10 раз. Владельцы сайта не видят смысла в поддержке погодного сервера в таких условиях. Сайт будет закрыт в октябре.
temp.,
°C
wind,
m/s
gust,
m/s
humid.,
%
clouds,
%
prec.,
mm/h
press.,
hPa
HPBL,
m
25 september, sun
sun2500:00+8wsw5118450 0.0 1014360
03:00+9wsw61381100 0.0 1015519
06:00+8wsw7158695 0.0 1014557
09:00+11w913695 0.0 1015893
12:00+15w9124710 0.0 10151709
15:00+17w911389 0.0 10152055
18:00+14wnw61044100 0.0 1016535
21:00+11wsw36567 0.0 1017102
26 september, mon
mon2600:00+10wsw3758100 0.0 1017114
03:00+10sw3560100 0.0 101780
06:00+10ssw3359100 0.0 101645
09:00+14ssw466995 0.1 1016353
12:00+19wsw695130 0.3 10151679
15:00+21wsw574195 0.3 10142142
18:00+17sw015720 0.2 101321
21:00+15s4854100 0.2 1013134
27 september, tue
tue2700:00+13s4107098 0.0 1012192
03:00+13s3994100 0.0 1011233
06:00+13s4996100 0.0 1010223
09:00+16s4886100 0.0 1009369
12:00+18s5772100 0.1 1008812
15:00+20se466098 0.9 10071234
18:00+19ese4652100 0.0 1005105
21:00+17se51162100 0.0 1004292
28 september, wed
wed2800:00+16se51167100 0.0 1003341
03:00+16s4965100 0.2 1002340
06:00+16ssw61188100 0.7 1001627
09:00+18sw7107870 0.9 1002841
12:00+21wsw685758 0.1 10021508
15:00+23w684234 0.1 10021686
18:00+19wnw47525 0.0 1004188
21:00+15nnw3569100 0.0 1006107
29 september, thu
thu2900:00+14n12751 0.0 100811
03:00+13nnw11790 0.0 101010
06:00+12ne118148 0.0 101110
09:00+16e226470 0.0 1012266
12:00+20ene224584 0.0 10131036
15:00+22ene223761 0.0 10131516
18:00+20ene3346100 0.0 101448
21:00+17e486092 0.0 1015152